Terminal Aerodrome Forecast
Issued by NWS Wilmington, NC

Home | Current Version | Previous Version | Text Only | Print | Product List | Glossary On
Versions: 1 2 3 4 5 6 7 8 9 10 11 12 13 14 15 16 17 18 19 20 21 22 23 24 25 26 27 28
033
FTUS42 KILM 262320
TAFFLO
TAF
KFLO 262320Z 2700/2724 20008KT P6SM VCSH BKN040
     FM270100 18005KT P6SM SCT040 SCT100 BKN150
     FM270800 19003KT 1SM BR BKN002
     FM271300 18004KT P6SM BKN003
     FM271400 17006KT P6SM BKN010
     FM271600 17009KT P6SM VCSH BKN030
     FM271800 18007KT P6SM VCTS SCT040CB=

USA.gov is the U.S. government's official web portal to all federal, state and local government web resources and services.